Bishopton, United Kingdom

11:38 AM GMT on December 05, 2016 (GMT +0000)
Glasgow

Weather History for EGPF - May, 2013

Change the Weather History Date:

Monday, May 13, 2013

  Actual Average Record
Temperature  
Mean Temperature 42 °F -  
Max Temperature 50 °F 58 °F 71 °F (2001)
Min Temperature 35 °F 43 °F 33 °F (2005)
Degree Days  
Heating Degree Days 22    
Moisture  
Dew Point 38 °F    
Average Humidity 82    
Maximum Humidity 93    
Minimum Humidity 71    
Precipitation  
Precipitation 0.00 in - - ()
Sea Level Pressure  
Sea Level Pressure 29.54 in    
Wind  
Wind Speed 15 mph ()    
Max Wind Speed 28 mph    
Max Gust Speed 39 mph    
Visibility 6.1 miles    
Events Rain    
Averages and records for this station are not official NWS values.
T = Trace of Precipitation, MM = Missing Value Source: Averaged Metar Reports

Daily Weather History Graph

Daily Weather History Graph

Search for Another Location

Airport or City:

Trip Planner

Search our weather history database for the weather conditions in past years. The results will help you decide how hot, cold, wet, or windy it might be!

Date:

Astronomy

May. 13, 2013 Rise Set
Actual Time 5:09 AM BST 9:20 PM BST
Civil Twilight 4:20 AM BST 10:09 PM BST
Nautical Twilight 3:06 AM BST 11:24 PM BST
Astronomical Twilight 1:46 AM BST 12:41 AM BST
Moon 7:37 AM BST (5/13) No Moon Set
Length of Visible Light 17h 49m
Length of Day
16h 11m
Waxing Crescent, 11% of the Moon is Illuminated
May 13
Waxing Crescent
May 18
First Quarter
May 25
Full
May 31
Last Quarter
Jun 8
New

Hourly Weather History & Observations

Time (BST) Temp. Windchill Dew Point Humidity Pressure Visibility Wind Dir Wind Speed Gust Speed Precip Events Conditions
12:20 AM 41.0 °F 34.3 °F 35.6 °F 81% 29.62 in 6.2 mi SW 11.5 mph - N/A   Scattered Clouds
12:50 AM 42.8 °F 38.0 °F 37.4 °F 81% 29.62 in 6.2 mi WSW 8.1 mph - N/A Rain Light Rain
1:20 AM 41.0 °F 33.1 °F 35.6 °F 81% 29.62 in 6.2 mi SW 15.0 mph - N/A Rain Light Rain
1:50 AM 39.2 °F 27.8 °F 35.6 °F 87% 29.65 in 3.1 mi West 27.6 mph 39.1 mph N/A Rain Rain
2:20 AM 37.4 °F 27.2 °F 33.8 °F 87% 29.62 in 3.1 mi West 19.6 mph - N/A Rain Rain
2:50 AM 35.6 °F 28.6 °F 33.8 °F 93% 29.59 in 6.2 mi SSW 9.2 mph - N/A   Scattered Clouds
3:20 AM 39.2 °F 32.0 °F 37.4 °F 93% 29.59 in 6.2 mi SW 11.5 mph - N/A   Mostly Cloudy
3:50 AM 41.0 °F 32.5 °F 37.4 °F 87% 29.59 in 6.2 mi WSW 17.3 mph - N/A   Mostly Cloudy
4:20 AM 39.2 °F 31.2 °F 35.6 °F 87% 29.59 in 6.2 mi WNW 13.8 mph - N/A Rain Light Rain
4:50 AM 39.2 °F 33.6 °F 35.6 °F 87% 29.59 in 6.2 mi West 8.1 mph - N/A   Mostly Cloudy
5:20 AM 39.2 °F 34.2 °F 35.6 °F 87% 29.59 in 6.2 mi WNW 6.9 mph - N/A Rain Light Rain
5:50 AM 39.2 °F 31.6 °F 35.6 °F 87% 29.59 in 6.2 mi SW 12.7 mph - N/A   Mostly Cloudy
6:20 AM 39.2 °F 31.2 °F 35.6 °F 87% 29.59 in 6.2 mi SW 13.8 mph - N/A   Mostly Cloudy
6:50 AM 41.0 °F 34.3 °F 37.4 °F 87% 29.56 in 6.2 mi SW 11.5 mph - N/A   Mostly Cloudy
7:20 AM 41.0 °F 33.5 °F 37.4 °F 87% 29.59 in 6.2 mi WSW 13.8 mph - N/A Rain Light Rain Showers
7:50 AM 41.0 °F 32.5 °F 37.4 °F 87% 29.56 in 6.2 mi SW 17.3 mph - N/A   Mostly Cloudy
8:20 AM 39.2 °F 30.2 °F 35.6 °F 87% 29.56 in 6.2 mi SW 17.3 mph - N/A   Mostly Cloudy
8:50 AM 42.8 °F 34.0 °F 39.2 °F 87% 29.56 in 6.2 mi SW 20.7 mph - N/A   Mostly Cloudy
9:20 AM 44.6 °F 37.4 °F 39.2 °F 81% 29.56 in 6.2 mi SW 16.1 mph - N/A   Mostly Cloudy
9:50 AM 41.0 °F 31.9 °F 37.4 °F 87% 29.59 in 6.2 mi West 19.6 mph - N/A Rain Light Rain Showers
10:20 AM 44.6 °F 36.9 °F 39.2 °F 81% 29.56 in 6.2 mi WSW 18.4 mph - N/A   Mostly Cloudy
10:50 AM 41.0 °F 31.6 °F 35.6 °F 81% 29.59 in 6.2 mi WSW 20.7 mph 32.2 mph N/A Rain Light Rain Showers
11:20 AM 46.4 °F 39.5 °F 41.0 °F 81% 29.56 in 6.2 mi WSW 17.3 mph - N/A Rain Light Rain Showers
11:50 AM 41.0 °F 31.6 °F 37.4 °F 87% 29.56 in 6.2 mi WSW 20.7 mph - N/A Rain Light Rain Showers
12:20 PM 48.2 °F - 41.0 °F 76% 29.56 in 6.2 mi WSW 20.7 mph 32.2 mph N/A   Scattered Clouds
12:50 PM 48.2 °F - 41.0 °F 76% 29.53 in 6.2 mi WSW 20.7 mph - N/A   Mostly Cloudy
1:20 PM 42.8 °F 33.8 °F 37.4 °F 81% 29.56 in 6.2 mi WSW 21.9 mph - N/A Rain Light Rain Showers
1:50 PM 46.4 °F 39.5 °F 41.0 °F 81% 29.53 in 6.2 mi SW 17.3 mph - N/A Rain Light Rain Showers
2:20 PM 41.0 °F 31.4 °F 37.4 °F 87% 29.53 in 6.2 mi West 21.9 mph - N/A Rain Light Rain Showers
2:50 PM 44.6 °F 37.4 °F 37.4 °F 76% 29.53 in 6.2 mi WSW 16.1 mph - N/A   Mostly Cloudy
3:20 PM 48.2 °F - 41.0 °F 76% 29.53 in 6.2 mi WSW 26.5 mph - N/A   Mostly Cloudy
3:50 PM 50.0 °F - 41.0 °F 71% 29.50 in 6.2 mi WSW 21.9 mph - N/A   Mostly Cloudy
4:20 PM 48.2 °F - 39.2 °F 71% 29.50 in 6.2 mi West 20.7 mph - N/A   Mostly Cloudy
4:50 PM 48.2 °F - 41.0 °F 76% 29.50 in 6.2 mi WSW 23.0 mph - N/A   Mostly Cloudy
5:20 PM 48.2 °F - 39.2 °F 71% 29.50 in 6.2 mi WSW 25.3 mph - N/A   Mostly Cloudy
5:50 PM 46.4 °F 38.3 °F 37.4 °F 71% 29.50 in 6.2 mi WSW 23.0 mph - N/A   Mostly Cloudy
6:20 PM 44.6 °F 38.4 °F 39.2 °F 81% 29.50 in 6.2 mi West 12.7 mph - N/A Rain Light Rain
6:50 PM 44.6 °F 37.2 °F 39.2 °F 81% 29.50 in 6.2 mi West 17.3 mph 29.9 mph N/A   Mostly Cloudy
7:20 PM 46.4 °F 39.8 °F 39.2 °F 76% 29.50 in 6.2 mi West 16.1 mph - N/A   Mostly Cloudy
7:50 PM 44.6 °F 36.9 °F 39.2 °F 81% 29.50 in 6.2 mi WSW 18.4 mph - N/A   Scattered Clouds
8:20 PM 44.6 °F 36.4 °F 37.4 °F 76% 29.50 in 6.2 mi WSW 20.7 mph - N/A   Mostly Cloudy
8:50 PM 44.6 °F 36.6 °F 37.4 °F 76% 29.47 in 6.2 mi WSW 19.6 mph - N/A Rain Light Rain Showers
9:20 PM 42.8 °F 34.3 °F 37.4 °F 81% 29.47 in 6.2 mi WSW 19.6 mph - N/A   Mostly Cloudy
9:50 PM 42.8 °F 33.8 °F 39.2 °F 87% 29.47 in 6.2 mi WSW 21.9 mph 34.5 mph N/A   Mostly Cloudy
10:20 PM 44.6 °F 36.1 °F 37.4 °F 76% 29.47 in 6.2 mi WSW 21.9 mph - N/A   Scattered Clouds
10:50 PM 42.8 °F 34.3 °F 37.4 °F 81% 29.44 in 6.2 mi WSW 19.6 mph - N/A Rain Light Rain Showers
11:20 PM 42.8 °F 34.0 °F 37.4 °F 81% 29.44 in 6.2 mi WSW 20.7 mph - N/A   Mostly Cloudy
11:50 PM 44.6 °F 35.5 °F 37.4 °F 76% 29.44 in 6.2 mi WSW 25.3 mph - N/A   Mostly Cloudy